Current Version              Previous Version:    01  02  03  04  05  06  07  08  09  10  11  12  13  14  15  16  17  18  19  20  21  22  23  24  25  26  27  28  29  30  
   31  32  33  34  35  36  37  38  39  40  41  42  43  44  45  46  47  48  49  50  51  52  53  54  55  56  57  58  59  60  

[Printable]
875
ASUS44 KFWD 301115
RWRTX
NORTH TEXAS HOURLY WEATHER ROUNDUP
NATIONAL WEATHER SERVICE FORT WORTH TX
600 AM CDT TUE SEP 30 2014

NOTE: "FAIR" INDICATES FEW OR NO CLOUDS BELOW 12,000 FEET WITH NO
SIGNIFICANT WEATHER AND/OR OBSTRUCTIONS TO VISIBILITY.

TXZ118-119-301200-
DALLAS/FORT WORTH METROPLEX

CITY           SKY/WX    TMP DP  RH WIND       PRES   REMARKS
DFW AIRPORT    MOCLDY    72  65  78 CALM      29.89S
DALLAS LOVE    MOCLDY    72  65  78 E5        29.89S
FTW MEACHAM    CLEAR     71  65  81 SE6       29.89S
DAL-EXECUTIVE  CLEAR     69  65  86 CALM      29.89F
FTW-ALLIANCE   PTCLDY    64  61  90 CALM      29.89S
FTW-NAS-JRB    MOCLDY    75  64  68 SE5       29.93F
FTW-SPINKS     CLEAR     64  61  91 CALM      29.91S
ARLINGTON      CLEAR     67  63  87 CALM      29.90R
GRAND PRAIRIE  CLEAR     73  65  77 CALM      29.91S
ADDISON        PTCLDY    72  64  78 E3        29.91S
LANCASTER      CLEAR     64  58  82 CALM      29.90S
$$

TXZ091>094-102>105-117-120-121-131>134-301200-
NORTH CENTRAL TEXAS

CITY           SKY/WX    TMP DP  RH WIND       PRES   REMARKS
SHRMAN/DENISON PTCLDY    68  60  77 SE6       29.91F
GAINESVILLE    PTCLDY    65  60  82 CALM      29.92S
BOWIE          PTCLDY    65  62  90 SE3       29.90S
BRIDGEPORT     CLEAR     64  61  90 CALM      29.91S
DECATUR        CLEAR     69  64  84 SE6       29.91S
DENTON         CLEAR     65  61  87 CALM      29.90S
MCKINNEY       PTCLDY    64  61  90 CALM      29.90S
GREENVILLE     CLEAR     63  59  88 CALM      29.91S
ROCKWALL       PTCLDY    68  64  86 CALM      29.89S
TERRELL        PTCLDY    69  66  90 CALM      29.90S
WAXAHACHIE     CLEAR     67  64  90 CALM      29.91S
CLEBURNE       CLEAR     68  66  94 CALM      29.92S
GRANBURY       PTCLDY    67  63  85 CALM      29.91S
$$

TXZ083>090-098>101-113>116-127>130-139>142-154-155-301200-
WESTERN NORTH TEXAS

CITY           SKY/WX    TMP DP  RH WIND       PRES   REMARKS
WICHITA FALLS  CLEAR     64  61  90 SE7       29.87F
WF-KICKAPOO    CLEAR     66  62  85 SE7       29.89S
VERNON         PTCLDY    66  58  75 S3        29.89S
ABILENE        CLEAR     67  56  67 S8        29.91F
ABILENE-DYESS  CLEAR     62  55  76 S6        29.89F
BRECKENRIDGE   CLEAR     67  55  67 S9        29.89S
GRAHAM         CLEAR     67  61  80 SE3       29.88S
MINERAL WELLS  CLEAR     66  63  90 SE7       29.89S
STEPHENVILLE   CLEAR     64  57  79 CALM      29.94S
COMANCHE       CLEAR     63  57  80 SE3       29.91S
BROWNWOOD      MOCLDY    59  55  88 CALM      29.92S
COLEMAN        CLEAR     65  56  72 CALM      29.92S
BRADY          CLEAR     64  57  77 SE5       29.92R
$$

TXZ143>147-156>162-174-175-301200-
CENTRAL TEXAS

CITY           SKY/WX    TMP DP  RH WIND       PRES   REMARKS
WACO           MOCLDY    66  60  81 CALM      29.89S
WACO-MCGREGOR  PTCLDY    66  52  59 CALM      29.90F
HILLSBORO      CLEAR     69  64  85 CALM      29.90S
CORSICANA      CLEAR     71  67  87 SE3       29.91R
MEXIA          CLEAR     67  66  97 E3        29.89S FOG
HEARNE         MOCLDY    70  67  92 CALM      29.89R
CAMERON        PTCLDY    67  64  88 CALM      29.89S
TEMPLE         MOCLDY    66  55  68 N3        29.89S
KILLEEN        CLEAR     68  59  73 CALM      29.90S
KILLEEN-SKYLRK CLEAR     63  54  72 CALM      29.88F
FORT HOOD      CLEAR     68  61  78 CALM      29.90S
GATESVILLE     CLEAR     63  57  82 CALM      29.92S
HAMILTON       CLEAR     66  58  75 S5        29.92S
LAMPASAS       CLEAR     62  60  93 CALM      29.90S
$$

TXZ095>097-106>112-122>126-135>138-148>153-164>167-301200-
EAST TEXAS

CITY           SKY/WX    TMP DP  RH WIND       PRES   REMARKS
PARIS          PTCLDY    68  57  68 E8        29.92F
SULPHUR SPRNGS CLOUDY    68  62  82 E3        29.93F
MOUNT PLEASANT CLOUDY    70  64  83 CALM      29.92S
GILMER         CLEAR     70  66  88 CALM      29.93R
MINEOLA        CLEAR     64  64 100 CALM      29.91S
TYLER          CLEAR     70  66  87 CALM      29.90R
LONGVIEW       CLOUDY    71  65  81 CALM      29.90S
MARSHALL       MOCLDY    68  65  88 CALM      29.92S
ATHENS         PTCLDY    66  64  94 CALM      29.90R
PALESTINE      CLEAR     71  69  94 CALM      29.90S
JACKSONVILLE   CLEAR     70  67  92 CALM      29.92S
HENDERSON      MOCLDY    67  66  99 CALM      29.91S
NACOGDOCHES    CLOUDY    66  64  94 CALM      29.91R
LUFKIN         CLEAR     71  66  84 CALM      29.89S HAZE
$$

SUPPLEMENTAL OBSERVATIONS (CENTRAL)

CITY           SKY/WX    TMP DP  RH WIND       PRES   REMARKS
LAKE TEXOMA      N/A     64  61  88 E3          N/A
PAT MAYSE LAKE   N/A     64  59  82 NW1         N/A
GREENVILLE       N/A     68  61  77 E2          N/A
CEDAR HILL       N/A     70  64  83 S2          N/A
ATHENS           N/A     66  63  88 CALM        N/A
MCGREGOR         N/A     64  57  77 CALM        N/A
$$

SUPPLEMENTAL OBSERVATIONS (WEST)

CITY           SKY/WX    TMP DP  RH WIND       PRES   REMARKS
MILLERS CREEK    N/A     66  52  59 S6          N/A
GRANBURY         N/A     66  63  88 CALM        N/A
HAMBY            N/A     66  55  68 S7          N/A
IVIE RESERVOIR   N/A     63  55  77 SE3         N/A
COLORADO BEND    N/A     63  59  88 CALM        N/A
$$

SUPPLEMENTAL OBSERVATIONS (EAST)

CITY           SKY/WX    TMP DP  RH WIND       PRES   REMARKS
CLARKSVILLE      N/A     66  61  82 NE2         N/A
TEXARKANA        N/A     66  61  82 CALM        N/A
LINDEN           N/A     70  63  78 CALM        N/A
CADDO LAKE       N/A     64  63  94 CALM        N/A
GILMER           N/A     66  61  82 CALM        N/A
HENDERSON        N/A     66  63  88 N1          N/A
LUFKIN           N/A     68  64  88 MISG        N/A
N SABINE NF      N/A     64  61  88 MISG        N/A
S SABINE NF      N/A     66  64  94 CALM        N/A
$$

SUPPLEMENTAL OBSERVATIONS ARE A COLLECTION OF AUTOMATED INSTRUMENTS
THAT ARE MAINTAINED BY A VARIETY OF FEDERAL AND STATE AGENCIES.
CERTAIN ELEMENTS...SUCH AS HUMIDITY VALUES AND SUSTAINED WIND
SPEEDS...MAY BE APPROXIMATED.